Teddy Meyer — WDF9635 — position and weather

sailwx.info

Track history (hours):
 
Tides and Currents Weather Stations Pressure Air Temp Water Temp Dewpoint Dewpoint Depression Visibility Wind Speed Wind Dir Waves Ship Positions

Teddy Meyer

Owner: LeBeouf Bros. Towing, LLC, Houma, LA. More information available from US FCC via Universal Licensing System and Coast Guard Vessel Documentation Center.

Last reported at 2015-Mar-01 07:22 UTC. Time now 2015-Mar-01 08:32 UTC.
Position N 29°46' W 095°06'.

; draft 3 m.

MMSI: 367507220.

Date/timePositionNaut miles runAvg speedWind from/ knotsBaromVisibWave heightAir tempDewpointWater temp
2015-Mar-01 07:22N 29°46' W 095°06'0 0.0
2015-Mar-01 06:32N 29°46' W 095°06'0 0.0
2015-Mar-01 05:30N 29°46' W 095°06'0 0.0
2015-Mar-01 04:31N 29°46' W 095°06'0 0.0
2015-Mar-01 03:27N 29°46' W 095°06'0 0.0
2015-Mar-01 02:33N 29°46' W 095°06'0 0.0
2015-Mar-01 01:33N 29°46' W 095°06'0 0.0
2015-Mar-01 00:05N 29°46' W 095°06'0 0.0
2015-Feb-28 23:31N 29°46' W 095°06'0 0.0
2015-Feb-28 21:22N 29°46' W 095°06'0 0.0
2015-Feb-27 19:10N 29°46' W 095°06'0 0.0
2015-Feb-27 18:32N 29°46' W 095°06'0 0.0
2015-Feb-27 17:33N 29°46' W 095°06'0 0.0
2015-Feb-27 16:33N 29°46' W 095°06'0 0.0
2015-Feb-27 15:33N 29°46' W 095°06'0 0.0
2015-Feb-27 14:33N 29°46' W 095°06'0 0.0
2015-Feb-26 14:33N 29°46' W 095°06'0 0.0
2015-Feb-25 14:21N 29°46' W 095°06'0 0.0
2015-Feb-24 20:15N 29°46' W 095°06'0 0.0
2015-Feb-24 13:33N 29°46' W 095°06'0 0.0
2015-Feb-24 12:33N 29°46' W 095°06'0 0.0
2015-Feb-24 11:33N 29°46' W 095°06'0 0.0
2015-Feb-24 10:33N 29°46' W 095°06'0 0.0
2015-Feb-24 09:33N 29°46' W 095°06'0 0.0
2015-Feb-24 08:33N 29°46' W 095°06'0 0.0
2015-Feb-24 07:33N 29°46' W 095°06'0 0.0
2015-Feb-24 06:33N 29°46' W 095°06'0 0.0
2015-Feb-24 05:33N 29°46' W 095°06'0 0.0
2015-Feb-24 04:33N 29°46' W 095°06'0 0.0
2015-Feb-24 03:33N 29°46' W 095°06'0 0.0
2015-Feb-24 02:33N 29°46' W 095°06'0 0.0
2015-Feb-24 01:33N 29°46' W 095°06'0 0.0
2015-Feb-24 00:33N 29°46' W 095°06'0 0.0
2015-Feb-23 23:33N 29°46' W 095°06'0 0.0
2015-Feb-23 22:33N 29°46' W 095°06'0 0.0
2015-Feb-23 21:33N 29°46' W 095°06'0 0.0
2015-Feb-23 20:33N 29°46' W 095°06'0 0.0
2015-Feb-23 19:33N 29°46' W 095°06'0 0.0
2015-Feb-23 18:33N 29°46' W 095°06'0 0.0
2015-Feb-23 17:33N 29°46' W 095°06'0 0.0
2015-Feb-23 16:11N 29°46' W 095°06'0 0.0
2015-Feb-23 15:32N 29°46' W 095°06'0 0.0
2015-Feb-23 13:24N 29°46' W 095°06'0 0.0
2015-Feb-23 12:31N 29°46' W 095°06'0 0.0
2015-Feb-23 11:33N 29°46' W 095°06'0 0.0
2015-Feb-23 10:27N 29°46' W 095°06'0 0.0
2015-Feb-23 09:31N 29°46' W 095°06'0 0.0
2015-Feb-23 08:31N 29°46' W 095°06'0 0.0
2015-Feb-23 06:18N 29°46' W 095°06'0 0.0
2015-Feb-23 05:31N 29°46' W 095°06'0 0.0
2015-Feb-23 04:07N 29°46' W 095°06'0 0.0
2015-Feb-23 01:32N 29°46' W 095°06'0 0.0
2015-Feb-22 23:33N 29°46' W 095°06'0 0.0
2015-Feb-22 22:33N 29°46' W 095°06'0 0.0
2015-Feb-22 21:32N 29°46' W 095°06'0 0.0
2015-Feb-22 20:33N 29°46' W 095°06'0 0.0
2015-Feb-22 19:33N 29°46' W 095°06'0 0.0
2015-Feb-22 18:33N 29°46' W 095°06'0 0.0
2015-Feb-22 17:33N 29°46' W 095°06'0 0.0
2015-Feb-22 16:33N 29°46' W 095°06'0 0.0
2015-Feb-22 15:33N 29°46' W 095°06'0 0.0
2015-Feb-22 14:33N 29°46' W 095°06'0 0.0
2015-Feb-22 13:33N 29°46' W 095°06'0 0.0
2015-Feb-22 12:33N 29°46' W 095°06'0 0.0
2015-Feb-22 11:33N 29°46' W 095°06'0 0.0
2015-Feb-22 10:33N 29°46' W 095°06'1 1.2
2015-Feb-22 09:33N 29°46' W 095°05'0 0.1
2015-Feb-22 08:33N 29°46' W 095°05'5 5.0
2015-Feb-22 07:33N 29°42' W 095°01'7 7.4
2015-Feb-22 06:33N 29°36' W 094°57'8 8.1
2015-Feb-22 05:32N 29°29' W 094°52'8 6.6
2015-Feb-22 04:21N 29°22' W 094°47'  
Track history (hours):
 
Tides and Currents Weather Stations Pressure Air Temp Water Temp Dewpoint Dewpoint Depression Visibility Wind Speed Wind Dir Waves Ship Positions

Teddy Meyer

Owner: LeBeouf Bros. Towing, LLC, Houma, LA. More information available from US FCC via Universal Licensing System and Coast Guard Vessel Documentation Center.

Last reported at 2015-Mar-01 07:22 UTC. Time now 2015-Mar-01 08:32 UTC.
Position N 29°46' W 095°06'.

; draft 3 m.

MMSI: 367507220.

Date/timePositionNaut miles runAvg speedWind from/ knotsBaromVisibWave heightAir tempDewpointWater temp
2015-Mar-01 07:22N 29°46' W 095°06'0 0.0
2015-Mar-01 06:32N 29°46' W 095°06'0 0.0
2015-Mar-01 05:30N 29°46' W 095°06'0 0.0
2015-Mar-01 04:31N 29°46' W 095°06'0 0.0
2015-Mar-01 03:27N 29°46' W 095°06'0 0.0
2015-Mar-01 02:33N 29°46' W 095°06'0 0.0
2015-Mar-01 01:33N 29°46' W 095°06'0 0.0
2015-Mar-01 00:05N 29°46' W 095°06'0 0.0
2015-Feb-28 23:31N 29°46' W 095°06'0 0.0
2015-Feb-28 21:22N 29°46' W 095°06'0 0.0
2015-Feb-27 19:10N 29°46' W 095°06'0 0.0
2015-Feb-27 18:32N 29°46' W 095°06'0 0.0
2015-Feb-27 17:33N 29°46' W 095°06'0 0.0
2015-Feb-27 16:33N 29°46' W 095°06'0 0.0
2015-Feb-27 15:33N 29°46' W 095°06'0 0.0
2015-Feb-27 14:33N 29°46' W 095°06'0 0.0
2015-Feb-26 14:33N 29°46' W 095°06'0 0.0
2015-Feb-25 14:21N 29°46' W 095°06'0 0.0
2015-Feb-24 20:15N 29°46' W 095°06'0 0.0
2015-Feb-24 13:33N 29°46' W 095°06'0 0.0
2015-Feb-24 12:33N 29°46' W 095°06'0 0.0
2015-Feb-24 11:33N 29°46' W 095°06'0 0.0
2015-Feb-24 10:33N 29°46' W 095°06'0 0.0
2015-Feb-24 09:33N 29°46' W 095°06'0 0.0
2015-Feb-24 08:33N 29°46' W 095°06'0 0.0
2015-Feb-24 07:33N 29°46' W 095°06'0 0.0
2015-Feb-24 06:33N 29°46' W 095°06'0 0.0
2015-Feb-24 05:33N 29°46' W 095°06'0 0.0
2015-Feb-24 04:33N 29°46' W 095°06'0 0.0
2015-Feb-24 03:33N 29°46' W 095°06'0 0.0
2015-Feb-24 02:33N 29°46' W 095°06'0 0.0
2015-Feb-24 01:33N 29°46' W 095°06'0 0.0
2015-Feb-24 00:33N 29°46' W 095°06'0 0.0
2015-Feb-23 23:33N 29°46' W 095°06'0 0.0
2015-Feb-23 22:33N 29°46' W 095°06'0 0.0
2015-Feb-23 21:33N 29°46' W 095°06'0 0.0
2015-Feb-23 20:33N 29°46' W 095°06'0 0.0
2015-Feb-23 19:33N 29°46' W 095°06'0 0.0
2015-Feb-23 18:33N 29°46' W 095°06'0 0.0
2015-Feb-23 17:33N 29°46' W 095°06'0 0.0
2015-Feb-23 16:11N 29°46' W 095°06'0 0.0
2015-Feb-23 15:32N 29°46' W 095°06'0 0.0
2015-Feb-23 13:24N 29°46' W 095°06'0 0.0
2015-Feb-23 12:31N 29°46' W 095°06'0 0.0
2015-Feb-23 11:33N 29°46' W 095°06'0 0.0
2015-Feb-23 10:27N 29°46' W 095°06'0 0.0
2015-Feb-23 09:31N 29°46' W 095°06'0 0.0
2015-Feb-23 08:31N 29°46' W 095°06'0 0.0
2015-Feb-23 06:18N 29°46' W 095°06'0 0.0
2015-Feb-23 05:31N 29°46' W 095°06'0 0.0
2015-Feb-23 04:07N 29°46' W 095°06'0 0.0
2015-Feb-23 01:32N 29°46' W 095°06'0 0.0
2015-Feb-22 23:33N 29°46' W 095°06'0 0.0
2015-Feb-22 22:33N 29°46' W 095°06'0 0.0
2015-Feb-22 21:32N 29°46' W 095°06'0 0.0
2015-Feb-22 20:33N 29°46' W 095°06'0 0.0
2015-Feb-22 19:33N 29°46' W 095°06'0 0.0
2015-Feb-22 18:33N 29°46' W 095°06'0 0.0
2015-Feb-22 17:33N 29°46' W 095°06'0 0.0
2015-Feb-22 16:33N 29°46' W 095°06'0 0.0
2015-Feb-22 15:33N 29°46' W 095°06'0 0.0
2015-Feb-22 14:33N 29°46' W 095°06'0 0.0
2015-Feb-22 13:33N 29°46' W 095°06'0 0.0
2015-Feb-22 12:33N 29°46' W 095°06'0 0.0
2015-Feb-22 11:33N 29°46' W 095°06'0 0.0
2015-Feb-22 10:33N 29°46' W 095°06'1 1.2
2015-Feb-22 09:33N 29°46' W 095°05'0 0.1
2015-Feb-22 08:33N 29°46' W 095°05'5 5.0
2015-Feb-22 07:33N 29°42' W 095°01'7 7.4
2015-Feb-22 06:33N 29°36' W 094°57'8 8.1
2015-Feb-22 05:32N 29°29' W 094°52'8 6.6
2015-Feb-22 04:21N 29°22' W 094°47'  

Dump ship's entire track history